Litchfield, MN

9:17 AM CST on February 26, 2017 (GMT -0600)
Litchfield Municipal

Weather History for KLJF - January, 2015

Change the Weather History Date:

Friday, January 16, 2015

  Actual Average Record
Temperature  
Mean Temperature 22 °F -  
Max Temperature 30 °F 21 °F 50 °F (1961)
Min Temperature 15 °F 1 °F -36 °F (1977)
Degree Days  
Heating Degree Days 42    
Moisture  
Dew Point 25 °F    
Average Humidity 95    
Maximum Humidity 100    
Minimum Humidity 80    
Precipitation  
Precipitation 0.00 in - - ()
Sea Level Pressure  
Sea Level Pressure 29.90 in    
Wind  
Wind Speed 5 mph (ESE)    
Max Wind Speed 16 mph    
Max Gust Speed 23 mph    
Visibility 8 miles    
Events Fog    
Averages and records for this station are not official NWS values.
T = Trace of Precipitation, MM = Missing Value Source: NWS Daily Summary

Daily Weather History Graph

Daily Weather History Graph

Search for Another Location

Airport or City:

Trip Planner

Search our weather history database for the weather conditions in past years. The results will help you decide how hot, cold, wet, or windy it might be!

Date:

Astronomy

Jan. 16, 2015 Rise Set
Actual Time 7:52 AM CST 5:03 PM CST
Civil Twilight 7:19 AM CST 5:36 PM CST
Nautical Twilight 6:43 AM CST 6:12 PM CST
Astronomical Twilight 6:08 AM CST 6:47 PM CST
Moon 3:46 AM CST (1/16) 1:41 PM CST (1/16)
Length of Visible Light 10h 16m
Length of Day
9h 10m
Waning Crescent, 18% of the Moon is Illuminated
Jan 16
Waning Crescent
Jan 20
New
Jan 26
First Quarter
Feb 3
Full
Feb 11
Last Quarter

Hourly Weather History & Observations

Time (CST) Temp. Windchill Dew Point Humidity Pressure Visibility Wind Dir Wind Speed Gust Speed Precip Events Conditions
12:13 AM 23.0 °F - 23.0 °F 100% 30.03 in 1.0 mi Calm Calm - N/A   Mist
12:33 AM 21.2 °F - 21.2 °F 100% 30.03 in 0.5 mi Calm Calm - N/A Fog Light Freezing Fog
12:52 AM 21.2 °F - 21.2 °F 100% 30.02 in 0.8 mi Calm Calm - N/A   Mostly Cloudy
1:13 AM 19.4 °F - 19.4 °F 100% 30.01 in 7.0 mi Calm Calm - N/A   Clear
1:32 AM 17.6 °F - 17.6 °F 100% 30.02 in 7.0 mi Calm Calm - N/A   Clear
1:53 AM 17.6 °F - 17.6 °F 100% 30.01 in 7.0 mi Calm Calm - N/A   Clear
2:12 AM 15.8 °F - 15.8 °F 100% 30.01 in 0.5 mi Calm Calm - N/A Fog Light Freezing Fog
2:33 AM 19.4 °F - 19.4 °F 100% 30.01 in 4.0 mi Calm Calm - N/A   Mostly Cloudy
2:53 AM 15.8 °F - 15.8 °F 100% 30.01 in 7.0 mi Calm Calm - N/A   Mostly Cloudy
3:12 AM 17.6 °F - 17.6 °F 100% 30.01 in 7.0 mi Calm Calm - N/A   Scattered Clouds
3:33 AM 15.8 °F - 15.8 °F 100% 30.01 in 10.0 mi Calm Calm - N/A   Scattered Clouds
3:53 AM 17.6 °F - 15.8 °F 93% 30.01 in 7.0 mi Calm Calm - N/A   Overcast
4:12 AM 17.6 °F - 17.6 °F 100% 30.01 in 10.0 mi Calm Calm - N/A   Overcast
4:33 AM 19.4 °F - 19.4 °F 100% 30.00 in 7.0 mi Calm Calm - N/A   Overcast
4:53 AM 21.2 °F - 21.2 °F 100% 30.01 in 5.0 mi Calm Calm - N/A   Overcast
5:13 AM 23.0 °F - 23.0 °F 100% 30.01 in 5.0 mi Calm Calm - N/A   Overcast
5:32 AM 24.8 °F - 24.8 °F 100% 30.00 in 7.0 mi Calm Calm - N/A   Overcast
5:53 AM 24.8 °F 20.5 °F 24.8 °F 100% 30.00 in 7.0 mi East 3.5 mph - N/A   Overcast
6:13 AM 26.6 °F 21.2 °F 26.6 °F 100% 30.00 in 7.0 mi East 4.6 mph - N/A   Overcast
6:33 AM 26.6 °F 20.0 °F 26.6 °F 100% 30.00 in 7.0 mi East 5.8 mph - N/A   Overcast
6:52 AM 26.6 °F 19.1 °F 26.6 °F 100% 30.00 in 7.0 mi East 6.9 mph - N/A   Overcast
7:12 AM 26.6 °F 18.2 °F 26.6 °F 100% 30.00 in 5.0 mi East 8.1 mph - N/A   Overcast
7:33 AM 26.6 °F 18.2 °F 26.6 °F 100% 30.00 in 5.0 mi East 8.1 mph - N/A   Overcast
7:53 AM 26.6 °F 17.5 °F 26.6 °F 100% 30.00 in 7.0 mi East 9.2 mph - N/A   Overcast
8:12 AM 26.6 °F 16.2 °F 26.6 °F 100% 30.00 in 10.0 mi ENE 11.5 mph - N/A   Overcast
8:33 AM 26.6 °F 16.8 °F 26.6 °F 100% 29.99 in 10.0 mi ENE 10.4 mph 17.3 mph N/A   Overcast
8:53 AM 26.6 °F 15.2 °F 24.8 °F 93% 29.99 in 10.0 mi East 13.8 mph - N/A   Overcast
9:12 AM 26.6 °F 15.2 °F 24.8 °F 93% 29.99 in 10.0 mi East 13.8 mph 20.7 mph N/A   Overcast
9:33 AM 26.6 °F 15.2 °F 24.8 °F 93% 29.99 in 10.0 mi East 13.8 mph 23.0 mph N/A   Overcast
9:53 AM 26.6 °F 14.7 °F 23.0 °F 86% 29.99 in 10.0 mi ENE 15.0 mph 20.7 mph N/A   Overcast
10:12 AM 26.6 °F 14.3 °F 21.2 °F 80% 30.00 in 10.0 mi East 16.1 mph 23.0 mph N/A   Overcast
10:33 AM 26.6 °F 14.7 °F 21.2 °F 80% 30.00 in 10.0 mi East 15.0 mph - N/A   Overcast
10:52 AM 26.6 °F 14.7 °F 23.0 °F 86% 29.99 in 10.0 mi East 15.0 mph - N/A   Overcast
11:13 AM 28.4 °F 17.0 °F 24.8 °F 86% 29.97 in 10.0 mi East 15.0 mph 23.0 mph N/A   Overcast
11:33 AM 28.4 °F 17.5 °F 24.8 °F 86% 29.96 in 10.0 mi East 13.8 mph - N/A   Overcast
11:52 AM 28.4 °F 16.6 °F 24.8 °F 86% 29.95 in 10.0 mi East 16.1 mph - N/A   Overcast
12:13 PM 28.4 °F 18.0 °F 24.8 °F 86% 29.94 in 10.0 mi East 12.7 mph - N/A   Overcast
12:33 PM 28.4 °F 18.0 °F 26.6 °F 93% 29.93 in 10.0 mi East 12.7 mph - N/A   Overcast
12:52 PM 28.4 °F 17.5 °F 26.6 °F 93% 29.92 in 10.0 mi East 13.8 mph - N/A   Overcast
1:13 PM 30.2 °F 20.8 °F 26.6 °F 86% 29.90 in 10.0 mi East 11.5 mph - N/A   Overcast
1:33 PM 30.2 °F 19.8 °F 26.6 °F 86% 29.89 in 10.0 mi East 13.8 mph 18.4 mph N/A   Overcast
1:53 PM 30.2 °F 20.2 °F 28.4 °F 93% 29.89 in 10.0 mi East 12.7 mph - N/A   Overcast
2:13 PM 30.2 °F 20.2 °F 28.4 °F 93% 29.89 in 7.0 mi East 12.7 mph - N/A   Overcast
2:32 PM 30.2 °F 19.8 °F 28.4 °F 93% 29.89 in 7.0 mi East 13.8 mph 20.7 mph N/A   Overcast
2:53 PM 30.2 °F 19.3 °F 28.4 °F 93% 29.86 in 7.0 mi ESE 15.0 mph - N/A   Overcast
3:13 PM 30.2 °F 20.2 °F 28.4 °F 93% 29.86 in 7.0 mi East 12.7 mph - N/A   Overcast
3:32 PM 30.2 °F 21.3 °F 28.4 °F 93% 29.87 in 7.0 mi East 10.4 mph - N/A   Overcast
3:53 PM 30.2 °F 20.8 °F 28.4 °F 93% 29.86 in 7.0 mi East 11.5 mph - N/A   Overcast
4:13 PM 30.2 °F 19.8 °F 28.4 °F 93% 29.85 in 7.0 mi East 13.8 mph - N/A   Overcast
4:32 PM 30.2 °F 20.2 °F 28.4 °F 93% 29.84 in 7.0 mi East 12.7 mph - N/A   Overcast
4:53 PM 30.2 °F 20.8 °F 28.4 °F 93% 29.85 in 7.0 mi ESE 11.5 mph - N/A   Overcast
5:13 PM 30.2 °F 21.9 °F 28.4 °F 93% 29.83 in 7.0 mi ESE 9.2 mph - N/A   Overcast
5:32 PM 30.2 °F 20.2 °F 28.4 °F 93% 29.82 in 7.0 mi East 12.7 mph - N/A   Overcast
5:53 PM 28.4 °F 19.7 °F 28.4 °F 100% 29.82 in 10.0 mi ESE 9.2 mph - N/A   Overcast
6:13 PM 30.2 °F 21.9 °F 28.4 °F 93% 29.81 in 10.0 mi East 9.2 mph - N/A   Overcast
6:32 PM 30.2 °F 23.4 °F 28.4 °F 93% 29.82 in 10.0 mi ESE 6.9 mph - N/A   Overcast
6:53 PM 30.2 °F 21.9 °F 28.4 °F 93% 29.81 in 10.0 mi SE 9.2 mph - N/A   Overcast
7:13 PM 30.2 °F 21.9 °F 28.4 °F 93% 29.80 in 10.0 mi SE 9.2 mph - N/A   Overcast
7:32 PM 30.2 °F 22.6 °F 28.4 °F 93% 29.79 in 10.0 mi SE 8.1 mph - N/A   Overcast
7:53 PM 30.2 °F 21.9 °F 28.4 °F 93% 29.77 in 10.0 mi SE 9.2 mph - N/A   Overcast
8:13 PM 30.2 °F 22.6 °F 30.2 °F 100% 29.76 in 10.0 mi SE 8.1 mph - N/A   Overcast
8:32 PM 30.2 °F 24.3 °F 30.2 °F 100% 29.76 in 10.0 mi SE 5.8 mph - N/A   Overcast
8:53 PM 30.2 °F 22.6 °F 30.2 °F 100% 29.75 in 10.0 mi SE 8.1 mph - N/A   Overcast
9:13 PM 30.2 °F 22.6 °F 30.2 °F 100% 29.74 in 10.0 mi SE 8.1 mph - N/A   Overcast
9:32 PM 30.2 °F 23.4 °F 28.4 °F 93% 29.73 in 10.0 mi ESE 6.9 mph - N/A   Overcast
9:53 PM 28.4 °F 19.7 °F 28.4 °F 100% 29.71 in 7.0 mi SE 9.2 mph - N/A   Overcast
10:13 PM 28.4 °F 19.7 °F 28.4 °F 100% 29.70 in 7.0 mi SE 9.2 mph - N/A   Overcast
10:32 PM 28.4 °F 19.1 °F 28.4 °F 100% 29.68 in 7.0 mi ESE 10.4 mph - N/A   Overcast
10:53 PM 28.4 °F 19.7 °F 28.4 °F 100% 29.67 in 7.0 mi SE 9.2 mph - N/A   Overcast
11:13 PM 28.4 °F 22.2 °F 28.4 °F 100% 29.67 in 7.0 mi SSE 5.8 mph - N/A   Overcast
11:32 PM 28.4 °F 21.2 °F 28.4 °F 100% 29.67 in 7.0 mi SSE 6.9 mph - N/A   Overcast
11:53 PM 28.4 °F 23.3 °F 28.4 °F 100% 29.65 in 5.0 mi SE 4.6 mph - N/A   Overcast